sat.trackr.live / text

‹ back to catalog

USA 270

NORAD 41744 · 2016-052A

PAYLOAD ACTIVE UNKNOWN

§ Identity

Operator
Country
US
Launch date
2016-08-19
Launch site
AFETR
Launch vehicle
Mass (kg)
RCS (m²)

Purposes: comms

External: N2YO · Heavens-Above · Gunter

§ Orbital elements

Epoch: 2026-05-24T08:49:35.275296Z

Period
1,435.99 min
Inclination
4.1376°
Eccentricity
0.0008631
Mean motion
1.00279232 rev/d
Perigee alt
35,748.1 km
Apogee alt
35,820.9 km
Semi-major
42,162.6 km
B*
0.0000e+0
RAAN
77.4847°
Arg perigee
334.8808°
Mean anomaly
145.8544°
Rev number
2,789

§ Raw data

USA 2701 41744U 16052A   26144.36776939  .00000073  00000+0  00000+0 0  99992 41744   4.1376  77.4847 0008631 334.8808 145.8544  1.00279232 27895

JSON: /api/v1/satellites/41744 · /tle

For live sub-satellite position, see the globe view (requires WebGL).

§ Visibility from observer

Set your observer location to see the next 7 days of passes ≥ 10°. The values pass through the URL so the page stays shareable.

No JS? Fill the form by hand. The geolocation button needs JavaScript.